User: anonymous   Login
Location: Young's Pond
(41.2695°N, 72.7766°W)
Time: 14:25:56
(UTC-05:00)
Language:

Spot 4 - Orbit

View from above orbital plane
View from above orbital plane
View from above satellite
View from above satellite

Ground track
Ground track

The orbit data is extracted from the following two-line orbital elements,

1 25260U 98017A   17054.95750739 -.00000070 +00000-0 -57538-5 0  9994
2 25260 098.3568 137.7101 0011692 260.4763 099.5112 14.53460607985402
Epoch (UTC): 23 February 2017 22:58:48
Eccentricity: 0.0011692
inclination: 98.3568°
perigee height: 706 km
apogee height: 722 km
right ascension of ascending node: 137.7101°
argument of perigee: 260.4763°
revolutions per day: 14.53460607
mean anomaly at epoch: 99.5112°
orbit number at epoch: 98540

The dashed part of the orbit path shows where the satellite is in the earth's shadow,  

DLR